����,���ϕ���(m/s),���ϕ���,�ő�u�ԕ���(m/s),�ő啗��������,�C��(��),���x(%),10���Ԉړ��ώZ�J��(mm),1���Ԉړ��ώZ�J��(mm),���J��(mm),�݌v�J��(mm),����(���ώZ)(MJ/m2),����(���ώZ)(min),���n�C��(hPa),�C�ʋC��(hPa)
2024-02-05T00:00:00+09:00,1.4,�k�k��,3.1,�k�k��,2.9,90.3,0,0,0,0,5.84,58,1013.2,1027.8
2024-02-05T00:01:00+09:00,1.4,�k�k��,3.1,�k�k��,2.8,90,0,0,0,0,0,0,1013.2,1027.8
2024-02-05T00:02:00+09:00,1.5,�k�k��,3.1,�k�k��,2.7,90,0,0,0,0,0,0,1013.2,1027.8
2024-02-05T00:03:00+09:00,1.7,�k�k��,3.3,�k��,2.7,90.2,0,0,0,0,0,0,1013.2,1027.8
2024-02-05T00:04:00+09:00,1.8,�k�k��,3.6,�k�k��,2.6,90.2,0,0,0,0,0,0,1013.2,1027.8
2024-02-05T00:05:00+09:00,1.9,�k�k��,3.6,�k�k��,2.7,90.5,0,0,0,0,0,0,1013.2,1027.8
2024-02-05T00:06:00+09:00,2.1,�k�k��,4,�k�k��,2.9,90.8,0,0,0,0,0,0,1013.2,1027.8
2024-02-05T00:07:00+09:00,2.2,�k�k��,4.1,�k�k��,3,90.7,0,0,0,0,0,0,1013.3,1027.9
2024-02-05T00:08:00+09:00,2.3,�k�k��,4.1,�k�k��,3,90.1,0,0,0,0,0,0,1013.4,1028
2024-02-05T00:09:00+09:00,2.3,�k�k��,4.1,�k�k��,2.8,89.8,0,0,0,0,0,0,1013.4,1028
2024-02-05T00:10:00+09:00,2.4,�k�k��,4.1,�k�k��,2.8,89.7,0,0,0,0,0,0,1013.3,1027.9
2024-02-05T00:11:00+09:00,2.5,�k�k��,4.1,�k�k��,3,90.1,0,0,0,0,0,0,1013.3,1027.9
2024-02-05T00:12:00+09:00,2.4,�k�k��,4.1,�k�k��,2.9,90,0,0,0,0,0,0,1013.3,1027.9
2024-02-05T00:13:00+09:00,2.5,�k�k��,4.1,�k�k��,3,90,0,0,0,0,0,0,1013.2,1027.8
2024-02-05T00:14:00+09:00,2.5,�k�k��,4.4,�k�k��,3,89.8,0,0,0,0,0,0,1013.1,1027.7
2024-02-05T00:15:00+09:00,2.5,�k�k��,4.4,�k�k��,3,89.6,0,0,0,0,0,0,1013.1,1027.7
2024-02-05T00:16:00+09:00,2.5,�k�k��,5,�k��,2.9,89.2,0,0,0,0,0,0,1012.9,1027.5
2024-02-05T00:17:00+09:00,2.6,�k�k��,5,�k��,2.9,89,0,0,0,0,0,0,1012.8,1027.4
2024-02-05T00:18:00+09:00,2.6,�k�k��,5,�k��,3,89.4,0,0,0,0,0,0,1012.8,1027.4
2024-02-05T00:19:00+09:00,2.7,�k�k��,5,�k��,3,89.1,0,0,0,0,0,0,1012.9,1027.5
2024-02-05T00:20:00+09:00,2.7,�k�k��,5,�k��,3.1,88.9,0,0,0,0,0,0,1012.9,1027.5
2024-02-05T00:21:00+09:00,2.8,�k�k��,5,�k��,3.1,88.8,0,0,0,0,0,0,1012.9,1027.5
2024-02-05T00:22:00+09:00,3,�k�k��,5,�k��,2.9,88.6,0,0,0,0,0,0,1012.9,1027.5
2024-02-05T00:23:00+09:00,3,�k�k��,5,�k��,2.8,88.5,0,0,0,0,0,0,1012.8,1027.4
2024-02-05T00:24:00+09:00,3,�k�k��,5,�k��,3,89.1,0,0,0,0,0,0,1012.7,1027.3
2024-02-05T00:25:00+09:00,3.1,�k�k��,5,�k��,3.1,88.9,0,0,0,0,0,0,1012.7,1027.3
2024-02-05T00:26:00+09:00,3.2,�k�k��,5.1,�k�k��,3.1,88.3,0,0,0,0,0,0,1012.5,1027.1
2024-02-05T00:27:00+09:00,3.1,�k�k��,5.1,�k�k��,3.2,87.9,0,0,0,0,0,0,1012.5,1027.1
2024-02-05T00:28:00+09:00,3.2,�k�k��,5.1,�k�k��,3.1,87.3,0,0,0,0,0,0,1012.4,1027
2024-02-05T00:29:00+09:00,3.2,�k�k��,5.8,�k�k��,3.1,87.3,0,0,0,0,0,0,1012.5,1027.1
2024-02-05T00:30:00+09:00,3.3,�k�k��,5.8,�k�k��,3.2,87,0,0,0,0,0,0,1012.5,1027.1
2024-02-05T00:31:00+09:00,3.4,�k�k��,5.8,�k�k��,3.2,86.8,0,0,0,0,0,0,1012.4,1027
2024-02-05T00:32:00+09:00,3.4,�k��,5.8,�k�k��,3.3,86.5,0,0,0,0,0,0,1012.5,1027.1
2024-02-05T00:33:00+09:00,3.6,�k��,5.8,�k�k��,3.2,86.2,0,0,0,0,0,0,1012.4,1027
2024-02-05T00:34:00+09:00,3.7,�k��,5.8,�k�k��,3.2,86.2,0,0,0,0,0,0,1012.5,1027.1
2024-02-05T00:35:00+09:00,3.7,�k��,5.8,�k�k��,3.3,86.1,0,0,0,0,0,0,1012.5,1027.1
2024-02-05T00:36:00+09:00,3.8,�k��,5.8,�k�k��,3.3,85.7,0,0,0,0,0,0,1012.5,1027.1
2024-02-05T00:37:00+09:00,4,�k��,5.8,�k�k��,3.3,85.4,0,0,0,0,0,0,1012.4,1027
2024-02-05T00:38:00+09:00,4.1,�k��,5.8,�k�k��,3.4,85.1,0,0,0,0,0,0,1012.4,1027
2024-02-05T00:39:00+09:00,4.1,�k��,5.5,�k��,3.3,84.8,0,0,0,0,0,0,1012.2,1026.8
2024-02-05T00:40:00+09:00,4.3,�k��,5.9,�k��,3.3,84.5,0,0,0,0,0,0,1012.1,1026.7
2024-02-05T00:41:00+09:00,4.4,�k��,6.1,�k��,3.4,84.5,0,0,0,0,0,0,1012.1,1026.7
2024-02-05T00:42:00+09:00,4.5,�k��,6.1,�k��,3.4,84.1,0,0,0,0,0,0,1011.9,1026.5
2024-02-05T00:43:00+09:00,4.6,�k��,6.1,�k��,3.4,84,0,0,0,0,0,0,1011.9,1026.5
2024-02-05T00:44:00+09:00,4.6,�k��,6.4,�k��,3.4,83.9,0,0,0,0,0,0,1011.7,1026.3
2024-02-05T00:45:00+09:00,4.7,�k��,6.4,�k��,3.4,84.5,0,0,0,0,0,0,1011.7,1026.3
2024-02-05T00:46:00+09:00,4.7,�k��,6.4,�k��,3.4,84.3,0,0,0,0,0,0,1011.6,1026.2
2024-02-05T00:47:00+09:00,4.6,�k��,6.4,�k��,3.4,84.7,0,0,0,0,0,0,1011.7,1026.3
2024-02-05T00:48:00+09:00,4.5,�k��,6.4,�k��,3.3,84.6,0,0,0,0,0,0,1011.8,1026.4
2024-02-05T00:49:00+09:00,4.4,�k��,6.4,�k��,3.4,84.7,0,0,0,0,0,0,1011.7,1026.3
2024-02-05T00:50:00+09:00,4.3,�k��,6.4,�k��,3.4,84.6,0,0,0,0,0,0,1011.7,1026.3
2024-02-05T00:51:00+09:00,4.1,�k��,6.4,�k��,3.1,84.5,0,0,0,0,0,0,1011.7,1026.3
2024-02-05T00:52:00+09:00,4.1,�k�k��,6.4,�k��,3.3,85.3,0,0,0,0,0,0,1011.7,1026.3
2024-02-05T00:53:00+09:00,3.9,�k�k��,6.4,�k��,3.4,85.1,0,0,0,0,0,0,1011.8,1026.4
2024-02-05T00:54:00+09:00,3.7,�k�k��,5.6,�k��,3.4,84.6,0,0,0,0,0,0,1011.9,1026.5
2024-02-05T00:55:00+09:00,3.5,�k�k��,5.6,�k��,3.4,84.3,0,0,0,0,0,0,1011.9,1026.5
2024-02-05T00:56:00+09:00,3.3,�k�k��,5.2,�k��,3.6,84.4,0,0,0,0,0,0,1011.9,1026.5
2024-02-05T00:57:00+09:00,3.2,�k�k��,5.2,�k��,3.5,84,0,0,0,0,0,0,1012,1026.6
2024-02-05T00:58:00+09:00,3,�k�k��,4.7,�k,3.6,83.2,0,0,0,0,0,0,1012,1026.6
2024-02-05T00:59:00+09:00,2.8,�k,4.7,�k,3.8,81.6,0,0,0,0,0,0,1012.1,1026.7
2024-02-05T01:00:00+09:00,2.8,�k,5.1,�k,4.1,79.8,0,0,0,0,0,0,1012.1,1026.6
2024-02-05T01:01:00+09:00,2.6,�k,5.1,�k,4.3,77.5,0,0,0,0,0,0,1012.1,1026.6
2024-02-05T01:02:00+09:00,2.4,�k,5.1,�k,4.5,75.9,0,0,0,0,0,0,1012.1,1026.6
2024-02-05T01:03:00+09:00,2.4,�k,5.5,�k�k��,4.5,75.2,0,0,0,0,0,0,1012,1026.5
2024-02-05T01:04:00+09:00,2.4,�k,5.5,�k�k��,4.6,74.7,0,0,0,0,0,0,1012,1026.5
2024-02-05T01:05:00+09:00,2.4,�k,5.5,�k�k��,4.6,74.3,0,0,0,0,0,0,1012,1026.5
2024-02-05T01:06:00+09:00,2.4,�k,5.5,�k�k��,4.5,74.3,0,0,0,0,0,0,1011.9,1026.4
2024-02-05T01:07:00+09:00,2.4,�k,5.5,�k�k��,4.4,75.4,0,0,0,0,0,0,1011.9,1026.4
2024-02-05T01:08:00+09:00,2.4,�k�k��,5.5,�k�k��,4.3,76.2,0,0,0,0,0,0,1011.8,1026.3
2024-02-05T01:09:00+09:00,2.4,�k�k��,5.5,�k�k��,4.2,77.1,0,0,0,0,0,0,1011.8,1026.3
2024-02-05T01:10:00+09:00,2.4,�k�k��,5.5,�k�k��,4.3,78,0,0,0,0,0,0,1011.8,1026.3
2024-02-05T01:11:00+09:00,2.5,�k�k��,5.5,�k�k��,4.3,78,0,0,0,0,0,0,1011.8,1026.3
2024-02-05T01:12:00+09:00,2.7,�k�k��,5.5,�k�k��,4.2,77.6,0,0,0,0,0,0,1011.9,1026.4
2024-02-05T01:13:00+09:00,2.7,�k�k��,4.9,�k,4.3,76.7,0,0,0,0,0,0,1011.8,1026.3
2024-02-05T01:14:00+09:00,2.8,�k�k��,5.8,�k�k��,4.3,76.3,0,0,0,0,0,0,1011.7,1026.2
2024-02-05T01:15:00+09:00,2.9,�k�k��,5.8,�k�k��,4.5,76.1,0,0,0,0,0,0,1011.7,1026.2
2024-02-05T01:16:00+09:00,3,�k�k��,5.8,�k�k��,4.5,75.4,0,0,0,0,0,0,1011.7,1026.2
2024-02-05T01:17:00+09:00,3.1,�k�k��,5.8,�k�k��,4.5,75.5,0,0,0,0,0,0,1011.6,1026.1
2024-02-05T01:18:00+09:00,3.1,�k�k��,5.8,�k�k��,4.3,76.1,0,0,0,0,0,0,1011.6,1026.1
2024-02-05T01:19:00+09:00,3.2,�k�k��,5.8,�k�k��,4.3,76.8,0,0,0,0,0,0,1011.5,1026
2024-02-05T01:20:00+09:00,3.2,�k�k��,5.8,�k�k��,4.3,77.2,0,0,0,0,0,0,1011.5,1026
2024-02-05T01:21:00+09:00,3.2,�k�k��,5.8,�k�k��,4.3,77.8,0,0,0,0,0,0,1011.5,1026
2024-02-05T01:22:00+09:00,3.1,�k�k��,5.8,�k�k��,4.2,77.9,0,0,0,0,0,0,1011.5,1026
2024-02-05T01:23:00+09:00,3.1,�k�k��,5.8,�k�k��,4.2,78.1,0,0,0,0,0,0,1011.5,1026
2024-02-05T01:24:00+09:00,3,�k�k��,5.2,�k�k��,4.2,78.4,0,0,0,0,0,0,1011.5,1026
2024-02-05T01:25:00+09:00,2.8,�k�k��,4.6,�k�k��,4.2,77.9,0,0,0,0,0,0,1011.4,1025.9
2024-02-05T01:26:00+09:00,2.8,�k�k��,4.8,�k,4.2,77.6,0,0,0,0,0,0,1011.4,1025.9
2024-02-05T01:27:00+09:00,2.8,�k�k��,4.8,�k,4.2,77.3,0,0,0,0,0,0,1011.4,1025.9
2024-02-05T01:28:00+09:00,2.7,�k�k��,4.8,�k,4.2,76.6,0,0,0,0,0,0,1011.4,1025.9
2024-02-05T01:29:00+09:00,2.6,�k�k��,4.8,�k,4.3,76.1,0,0,0,0,0,0,1011.4,1025.9
2024-02-05T01:30:00+09:00,2.6,�k,4.8,�k,4.4,75.9,0,0,0,0,0,0,1011.3,1025.8
2024-02-05T01:31:00+09:00,2.6,�k,4.8,�k,4.4,75.8,0,0,0,0,0,0,1011.2,1025.7
2024-02-05T01:32:00+09:00,2.5,�k,4.8,�k,4.4,75.4,0,0,0,0,0,0,1011.2,1025.7
2024-02-05T01:33:00+09:00,2.4,�k,4.8,�k,4.5,75,0,0,0,0,0,0,1011.2,1025.7
2024-02-05T01:34:00+09:00,2.4,�k,4.8,�k,4.5,74.1,0,0,0,0,0,0,1011.2,1025.7
2024-02-05T01:35:00+09:00,2.3,�k,4.8,�k,4.7,73.6,0,0,0,0,0,0,1011.2,1025.7
2024-02-05T01:36:00+09:00,2.1,�k,4.8,�k,4.7,72.9,0,0,0,0,0,0,1011.2,1025.7
2024-02-05T01:37:00+09:00,2.2,�k,4.8,�k,4.8,72.6,0,0,0,0,0,0,1011.1,1025.6
2024-02-05T01:38:00+09:00,2.2,�k,4.8,�k,4.8,72.1,0,0,0,0,0,0,1011,1025.5
2024-02-05T01:39:00+09:00,2.1,�k�k��,4.8,�k,4.8,71.8,0,0,0,0,0,0,1011,1025.5
2024-02-05T01:40:00+09:00,2.1,�k�k��,4.8,�k,4.8,71.4,0,0,0,0,0,0,1011,1025.5
2024-02-05T01:41:00+09:00,2,�k�k��,4.8,�k,4.8,71.2,0,0,0,0,0,0,1010.9,1025.4
2024-02-05T01:42:00+09:00,2,�k�k��,4.8,�k,4.9,71.2,0,0,0,0,0,0,1010.9,1025.4
2024-02-05T01:43:00+09:00,1.8,�k�k��,4.5,�k�k��,4.9,71,0,0,0,0,0,0,1010.8,1025.3
2024-02-05T01:44:00+09:00,1.9,�k�k��,5.1,�k,5,70.8,0,0,0,0,0,0,1010.8,1025.3
2024-02-05T01:45:00+09:00,1.9,�k�k��,5.5,�k�k��,4.9,70.9,0,0,0,0,0,0,1010.8,1025.3
2024-02-05T01:46:00+09:00,2,�k�k��,5.5,�k�k��,4.9,71,0,0,0,0,0,0,1010.8,1025.3
2024-02-05T01:47:00+09:00,2.1,�k�k��,6,�k,4.9,71.3,0,0,0,0,0,0,1010.7,1025.2
2024-02-05T01:48:00+09:00,2.2,�k,6,�k,4.9,71.4,0,0,0,0,0,0,1010.8,1025.3
2024-02-05T01:49:00+09:00,2.3,�k,6,�k,5,71.8,0,0,0,0,0,0,1010.7,1025.2
2024-02-05T01:50:00+09:00,2.3,�k,6,�k,4.8,71.9,0,0,0,0,0,0,1010.9,1025.4
2024-02-05T01:51:00+09:00,2.3,�k,6,�k,4.8,71.8,0,0,0,0,0,0,1011,1025.5
2024-02-05T01:52:00+09:00,2.4,�k,6,�k,4.9,71.8,0,0,0,0,0,0,1011,1025.5
2024-02-05T01:53:00+09:00,2.5,�k,6,�k,4.9,72.1,0,0,0,0,0,0,1010.9,1025.4
2024-02-05T01:54:00+09:00,2.5,�k,6,�k,4.9,71.9,0,0,0,0,0,0,1011,1025.5
2024-02-05T01:55:00+09:00,2.6,�k,6,�k,5,72.1,0,0,0,0,0,0,1011,1025.5
2024-02-05T01:56:00+09:00,2.5,�k,6,�k,4.9,72.7,0,0,0,0,0,0,1011,1025.5
2024-02-05T01:57:00+09:00,2.5,�k,5.9,�k,4.8,72.8,0,0,0,0,0,0,1011,1025.5
2024-02-05T01:58:00+09:00,2.4,�k,5.9,�k,4.8,73.2,0,0,0,0,0,0,1011,1025.5
2024-02-05T01:59:00+09:00,2.3,�k,5.9,�k,4.8,73.2,0,0,0,0,0,0,1011.1,1025.6
2024-02-05T02:00:00+09:00,2.4,�k,5.9,�k,4.8,73,0,0,0,0,0,0,1011,1025.5
2024-02-05T02:01:00+09:00,2.4,�k,5,�k�k��,4.8,73,0,0,0,0,0,0,1011.1,1025.6
2024-02-05T02:02:00+09:00,2.5,�k,5,�k�k��,5,73.2,0,0,0,0,0,0,1011.2,1025.7
2024-02-05T02:03:00+09:00,2.6,�k,5,�k�k��,4.8,73,0,0,0,0,0,0,1011.3,1025.8
2024-02-05T02:04:00+09:00,2.7,�k,5,�k�k��,4.8,73.3,0,0,0,0,0,0,1011.3,1025.8
2024-02-05T02:05:00+09:00,2.6,�k,5,�k�k��,4.8,73.6,0,0,0,0,0,0,1011.3,1025.8
2024-02-05T02:06:00+09:00,2.7,�k,5,�k�k��,4.9,73.6,0,0,0,0,0,0,1011.4,1025.9
2024-02-05T02:07:00+09:00,2.7,�k,5,�k�k��,4.9,73.4,0,0,0,0,0,0,1011.4,1025.9
2024-02-05T02:08:00+09:00,2.8,�k,5,�k�k��,4.8,73.8,0,0,0,0,0,0,1011.5,1026
2024-02-05T02:09:00+09:00,3,�k�k��,5,�k�k��,4.8,73.8,0,0,0,0,0,0,1011.6,1026.1
2024-02-05T02:10:00+09:00,3.1,�k�k��,5.8,�k�k��,4.9,74.3,0,0,0,0,0,0,1011.6,1026.1
2024-02-05T02:11:00+09:00,3.2,�k�k��,5.8,�k�k��,4.9,74.5,0,0,0,0,0,0,1011.6,1026.1
2024-02-05T02:12:00+09:00,3.4,�k�k��,6.5,�k�k��,4.9,74.1,0,0,0,0,0,0,1011.7,1026.2
2024-02-05T02:13:00+09:00,3.3,�k�k��,6.5,�k�k��,4.9,73.6,0,0,0,0,0,0,1011.7,1026.2
2024-02-05T02:14:00+09:00,3.3,�k�k��,6.5,�k�k��,4.8,73.2,0,0,0,0,0,0,1011.7,1026.2
2024-02-05T02:15:00+09:00,3.3,�k�k��,6.5,�k�k��,4.8,73,0,0,0,0,0,0,1011.7,1026.2
2024-02-05T02:16:00+09:00,3.3,�k�k��,6.5,�k�k��,4.9,72.8,0,0,0,0,0,0,1011.7,1026.2
2024-02-05T02:17:00+09:00,3.2,�k,6.5,�k�k��,5,72,0,0,0,0,0,0,1011.7,1026.2
2024-02-05T02:18:00+09:00,3.1,�k,6.5,�k�k��,5.1,71.5,0,0,0,0,0,0,1011.7,1026.2
2024-02-05T02:19:00+09:00,3.1,�k,6.5,�k�k��,5,71.6,0,0,0,0,0,0,1011.7,1026.2
2024-02-05T02:20:00+09:00,3,�k,6.5,�k�k��,5.1,72.1,0,0,0,0,0,0,1011.7,1026.2
2024-02-05T02:21:00+09:00,3,�k,6.5,�k�k��,4.9,72.6,0,0,0,0,0,0,1011.7,1026.2
2024-02-05T02:22:00+09:00,2.7,�k,5.7,�k�k��,4.9,73.1,0,0,0,0,0,0,1011.7,1026.2
2024-02-05T02:23:00+09:00,2.7,�k,5.7,�k�k��,4.8,73.3,0,0,0,0,0,0,1011.7,1026.2
2024-02-05T02:24:00+09:00,2.6,�k,5.7,�k�k��,4.7,73.6,0,0,0,0,0,0,1011.6,1026.1
2024-02-05T02:25:00+09:00,2.6,�k,5.7,�k�k��,4.8,74,0,0,0,0,0,0,1011.6,1026.1
2024-02-05T02:26:00+09:00,2.6,�k,5.7,�k�k��,4.8,74,0,0,0,0,0,0,1011.6,1026.1
2024-02-05T02:27:00+09:00,2.8,�k,5.7,�k�k��,4.8,74,0,0,0,0,0,0,1011.5,1026
2024-02-05T02:28:00+09:00,3,�k,5.7,�k�k��,4.7,74.1,0,0,0,0,0,0,1011.3,1025.8
2024-02-05T02:29:00+09:00,2.9,�k,5.7,�k�k��,4.8,74.5,0,0,0,0,0,0,1011.3,1025.8
2024-02-05T02:30:00+09:00,2.9,�k,5.3,�k,4.7,74.6,0,0,0,0,0,0,1011.4,1025.9
2024-02-05T02:31:00+09:00,2.8,�k,5.2,�k�k��,4.8,75,0,0,0,0,0,0,1011.4,1025.9
2024-02-05T02:32:00+09:00,2.8,�k,5.1,�k�k��,4.8,75.2,0,0,0,0,0,0,1011.3,1025.8
2024-02-05T02:33:00+09:00,2.9,�k�k��,5.1,�k�k��,4.8,75.4,0,0,0,0,0,0,1011.3,1025.8
2024-02-05T02:34:00+09:00,3.1,�k�k��,5.1,�k�k��,4.8,75.6,0,0,0,0,0,0,1011.2,1025.7
2024-02-05T02:35:00+09:00,3.1,�k�k��,5.1,�k�k��,4.7,75.2,0,0,0,0,0,0,1011.2,1025.7
2024-02-05T02:36:00+09:00,3,�k�k��,5.1,�k�k��,4.6,75,0,0,0,0,0,0,1011.1,1025.6
2024-02-05T02:37:00+09:00,3,�k�k��,5.1,�k�k��,4.6,75.2,0,0,0,0,0,0,1011.1,1025.6
2024-02-05T02:38:00+09:00,2.8,�k�k��,4.9,�k,4.6,75.3,0,0,0,0,0,0,1011,1025.5
2024-02-05T02:39:00+09:00,2.8,�k�k��,4.7,�k�k��,4.6,75.4,0,0,0,0,0,0,1010.9,1025.4
2024-02-05T02:40:00+09:00,2.8,�k�k��,4.7,�k�k��,4.7,75.4,0,0,0,0,0,0,1010.8,1025.3
2024-02-05T02:41:00+09:00,2.8,�k,4.7,�k�k��,4.8,75.2,0,0,0,0,0,0,1010.8,1025.3
2024-02-05T02:42:00+09:00,2.7,�k,4.9,�k,4.7,74.7,0,0,0,0,0,0,1010.9,1025.4
2024-02-05T02:43:00+09:00,2.7,�k,4.9,�k,4.7,74.6,0,0,0,0,0,0,1010.8,1025.3
2024-02-05T02:44:00+09:00,2.5,�k,4.9,�k,4.7,74.3,0,0,0,0,0,0,1010.8,1025.3
2024-02-05T02:45:00+09:00,2.4,�k,4.9,�k,4.7,74.3,0,0,0,0,0,0,1010.7,1025.2
2024-02-05T02:46:00+09:00,2.3,�k,4.9,�k,4.8,74.3,0,0,0,0,0,0,1010.8,1025.3
2024-02-05T02:47:00+09:00,2.2,�k,4.9,�k,4.8,74.1,0,0,0,0,0,0,1010.9,1025.4
2024-02-05T02:48:00+09:00,2,�k,4.9,�k,4.8,74.4,0,0,0,0,0,0,1010.9,1025.4
2024-02-05T02:49:00+09:00,1.9,�k,4.9,�k,4.7,74.4,0,0,0,0,0,0,1011,1025.5
2024-02-05T02:50:00+09:00,1.7,�k,4.9,�k,4.8,74.3,0,0,0,0,0,0,1011,1025.5
2024-02-05T02:51:00+09:00,1.5,�k,4.9,�k,4.8,74.3,0,0,0,0,0,0,1011,1025.5
2024-02-05T02:52:00+09:00,1.5,�k,4.4,�k,4.8,74.3,0,0,0,0,0,0,1011,1025.5
2024-02-05T02:53:00+09:00,1.3,�k,3.3,�k,4.8,74.1,0,0,0,0,0,0,1011.1,1025.6
2024-02-05T02:54:00+09:00,1.2,�k�k��,3.1,�k,4.9,74,0,0,0,0,0,0,1011.1,1025.6
2024-02-05T02:55:00+09:00,1.2,�k�k��,3,�k��,4.9,73.5,0,0,0,0,0,0,1011.1,1025.6
2024-02-05T02:56:00+09:00,1.3,�k�k��,3,�k��,4.9,72.9,0,0,0,0,0,0,1011.1,1025.6
2024-02-05T02:57:00+09:00,1.3,�k�k��,3,�k��,4.9,72.4,0,0,0,0,0,0,1011.1,1025.6
2024-02-05T02:58:00+09:00,1.4,�k�k��,3.1,�k,5,72,0,0,0,0,0,0,1011.2,1025.7
2024-02-05T02:59:00+09:00,1.5,�k�k��,3.1,�k,5.1,71.4,0,0,0,0,0,0,1011.2,1025.7
2024-02-05T03:00:00+09:00,1.6,�k�k��,3.7,�k��,5.1,71.3,0,0,0,0,0,0,1011.2,1025.7
2024-02-05T03:01:00+09:00,1.8,�k�k��,3.9,�k��,5.1,70.8,0,0,0,0,0,0,1011.2,1025.7
2024-02-05T03:02:00+09:00,2,�k��,3.9,�k��,5.2,70.3,0,0,0,0,0,0,1011.3,1025.8
2024-02-05T03:03:00+09:00,2.3,�k��,4.8,�k��,5.3,70,0,0,0,0,0,0,1011.2,1025.7
2024-02-05T03:04:00+09:00,2.5,�k��,4.8,�k��,5.3,69.6,0,0,0,0,0,0,1011.2,1025.7
2024-02-05T03:05:00+09:00,2.6,�k��,4.8,�k��,5.4,69.4,0,0,0,0,0,0,1011.2,1025.7
2024-02-05T03:06:00+09:00,2.6,�k��,4.8,�k��,5.4,68.7,0,0,0,0,0,0,1011.1,1025.6
2024-02-05T03:07:00+09:00,2.6,�k��,4.8,�k��,5.4,68.5,0,0,0,0,0,0,1011,1025.5
2024-02-05T03:08:00+09:00,2.7,�k��,4.8,�k��,5.4,68.6,0,0,0,0,0,0,1010.9,1025.4
2024-02-05T03:09:00+09:00,2.7,�k��,4.8,�k��,5.4,68.6,0,0,0,0,0,0,1011,1025.5
2024-02-05T03:10:00+09:00,2.7,�k��,4.8,�k��,5.4,68.6,0,0,0,0,0,0,1011,1025.5
2024-02-05T03:11:00+09:00,2.6,�k��,4.8,�k��,5.3,68.5,0,0,0,0,0,0,1011,1025.5
2024-02-05T03:12:00+09:00,2.5,�k��,4.8,�k��,5.4,68.4,0,0,0,0,0,0,1010.8,1025.3
2024-02-05T03:13:00+09:00,2.2,�k�k��,4.7,�k�k��,5.3,68.5,0,0,0,0,0,0,1010.8,1025.3
2024-02-05T03:14:00+09:00,2,�k�k��,4.7,�k�k��,5.4,68.9,0,0,0,0,0,0,1010.7,1025.2
2024-02-05T03:15:00+09:00,1.9,�k�k��,4.7,�k�k��,5.3,69.1,0,0,0,0,0,0,1010.7,1025.2
2024-02-05T03:16:00+09:00,1.9,�k,3.7,�k��,5.2,70.1,0,0,0,0,0,0,1010.6,1025.1
2024-02-05T03:17:00+09:00,2,�k,3.7,�k��,5.2,71.3,0,0,0,0,0,0,1010.6,1025.1
2024-02-05T03:18:00+09:00,2,�k,3.3,�k��,5,71.8,0,0,0,0,0,0,1010.6,1025.1
2024-02-05T03:19:00+09:00,2,�k�k��,3.4,�k��,5.1,72.5,0,0,0,0,0,0,1010.5,1025
2024-02-05T03:20:00+09:00,2.1,�k�k��,3.8,�k��,5,73,0,0,0,0,0,0,1010.5,1025
2024-02-05T03:21:00+09:00,2.2,�k�k��,3.8,�k��,4.9,72.9,0,0,0,0,0,0,1010.5,1025
2024-02-05T03:22:00+09:00,2.3,�k��,3.9,�k��,4.9,73.5,0,0,0,0,0,0,1010.5,1025
2024-02-05T03:23:00+09:00,2.5,�k��,3.9,�k��,4.9,74,0,0,0,0,0,0,1010.6,1025.1
2024-02-05T03:24:00+09:00,2.6,�k��,3.9,�k��,4.9,74.2,0,0,0,0,0,0,1010.5,1025
2024-02-05T03:25:00+09:00,2.6,�k��,3.9,�k��,5,74.7,0,0,0,0,0,0,1010.5,1025
2024-02-05T03:26:00+09:00,2.6,�k��,3.9,�k��,5,74.8,0,0,0,0,0,0,1010.5,1025
2024-02-05T03:27:00+09:00,2.6,�k��,3.9,�k��,4.9,74.8,0,0,0,0,0,0,1010.6,1025.1
2024-02-05T03:28:00+09:00,2.5,�k�k��,3.9,�k��,4.8,75.2,0,0,0,0,0,0,1010.7,1025.2
2024-02-05T03:29:00+09:00,2.5,�k�k��,3.9,�k��,4.8,75.9,0,0,0,0,0,0,1010.7,1025.2
2024-02-05T03:30:00+09:00,2.4,�k�k��,3.9,�k��,4.8,76,0,0,0,0,0,0,1010.8,1025.3
2024-02-05T03:31:00+09:00,2.3,�k�k��,3.9,�k��,4.7,76,0,0,0,0,0,0,1010.8,1025.3
2024-02-05T03:32:00+09:00,2.2,�k�k��,4.7,�k,4.8,75.7,0,0,0,0,0,0,1010.8,1025.3
2024-02-05T03:33:00+09:00,2.3,�k�k��,5.7,�k,4.8,75.1,0,0,0,0,0,0,1010.8,1025.3
2024-02-05T03:34:00+09:00,2.4,�k�k��,5.7,�k,4.9,74.2,0,0,0,0,0,0,1010.8,1025.3
2024-02-05T03:35:00+09:00,2.5,�k�k��,5.7,�k,5.1,73.8,0,0,0,0,0,0,1010.7,1025.2
2024-02-05T03:36:00+09:00,2.6,�k,5.7,�k,5.1,73.4,0,0,0,0,0,0,1010.7,1025.2
2024-02-05T03:37:00+09:00,2.7,�k,5.7,�k,5.1,73.2,0,0,0,0,0,0,1010.6,1025.1
2024-02-05T03:38:00+09:00,2.9,�k,5.7,�k,5.1,73.1,0,0,0,0,0,0,1010.7,1025.2
2024-02-05T03:39:00+09:00,3.2,�k,5.7,�k,5.1,73.1,0,0,0,0,0,0,1010.7,1025.2
2024-02-05T03:40:00+09:00,3.3,�k,5.7,�k,5.2,72.8,0,0,0,0,0,0,1010.6,1025.1
2024-02-05T03:41:00+09:00,3.4,�k,5.7,�k,5.1,72.3,0,0,0,0,0,0,1010.7,1025.2
2024-02-05T03:42:00+09:00,3.4,�k,5.7,�k,5,72.2,0,0,0,0,0,0,1010.7,1025.2
2024-02-05T03:43:00+09:00,3.4,�k,5.7,�k�k��,5,72.4,0,0,0,0,0,0,1010.8,1025.3
2024-02-05T03:44:00+09:00,3.4,�k,5.7,�k�k��,5.1,72.9,0,0,0,0,0,0,1010.8,1025.3
2024-02-05T03:45:00+09:00,3.5,�k,5.7,�k�k��,5.1,73,0,0,0,0,0,0,1010.9,1025.4
2024-02-05T03:46:00+09:00,3.5,�k,5.7,�k�k��,5.2,73.1,0,0,0,0,0,0,1010.9,1025.4
2024-02-05T03:47:00+09:00,3.6,�k,5.7,�k�k��,5,73.1,0,0,0,0,0,0,1010.8,1025.3
2024-02-05T03:48:00+09:00,3.6,�k,6.2,�k�k��,5,73.6,0,0,0,0,0,0,1010.8,1025.3
2024-02-05T03:49:00+09:00,3.6,�k,6.2,�k�k��,4.9,73.8,0,0,0,0,0,0,1010.7,1025.2
2024-02-05T03:50:00+09:00,3.7,�k�k��,6.2,�k�k��,5,74,0,0,0,0,0,0,1010.8,1025.3
2024-02-05T03:51:00+09:00,3.8,�k�k��,6.2,�k�k��,4.9,74.1,0,0,0,0,0,0,1010.6,1025.1
2024-02-05T03:52:00+09:00,3.8,�k�k��,6.2,�k�k��,4.9,74.1,0,0,0,0,0,0,1010.6,1025.1
2024-02-05T03:53:00+09:00,3.8,�k�k��,6.2,�k�k��,4.8,74.1,0,0,0,0,0,0,1010.5,1025
2024-02-05T03:54:00+09:00,3.7,�k�k��,6.2,�k�k��,4.8,74.5,0,0,0,0,0,0,1010.4,1024.9
2024-02-05T03:55:00+09:00,3.6,�k�k��,6.2,�k�k��,4.8,74.7,0,0,0,0,0,0,1010.4,1024.9
2024-02-05T03:56:00+09:00,3.4,�k,6.2,�k�k��,4.8,74.9,0,0,0,0,0,0,1010.5,1025
2024-02-05T03:57:00+09:00,3.2,�k,6.2,�k�k��,4.8,75.1,0,0,0,0,0,0,1010.5,1025
2024-02-05T03:58:00+09:00,2.9,�k,5.6,�k,4.8,75.1,0,0,0,0,0,0,1010.5,1025
2024-02-05T03:59:00+09:00,2.6,�k,5.6,�k,4.8,75.3,0,0,0,0,0,0,1010.5,1025
2024-02-05T04:00:00+09:00,2.5,�k,5.6,�k,4.8,75.4,0,0,0,0,0,0,1010.6,1025.1
2024-02-05T04:01:00+09:00,2.2,�k,5.6,�k,4.8,75.4,0,0,0,0,0,0,1010.7,1025.2
2024-02-05T04:02:00+09:00,2.1,�k,5,�k�k��,4.8,75.5,0,0,0,0,0,0,1010.7,1025.2
2024-02-05T04:03:00+09:00,1.9,�k,5,�k�k��,4.8,75.6,0,0,0,0,0,0,1010.7,1025.2
2024-02-05T04:04:00+09:00,1.9,�k,4.6,�k,4.8,75.6,0,0,0,0,0,0,1010.7,1025.2
2024-02-05T04:05:00+09:00,1.8,�k,4.6,�k,4.8,75.5,0,0,0,0,0,0,1010.7,1025.2
2024-02-05T04:06:00+09:00,1.8,�k,4.6,�k,4.9,75.3,0,0,0,0,0,0,1010.8,1025.3
2024-02-05T04:07:00+09:00,1.8,�k,4.6,�k,4.8,75,0,0,0,0,0,0,1010.7,1025.2
2024-02-05T04:08:00+09:00,1.8,�k,4.6,�k,4.9,74.7,0,0,0,0,0,0,1010.8,1025.3
2024-02-05T04:09:00+09:00,1.8,�k,4.6,�k,4.9,74.6,0,0,0,0,0,0,1010.7,1025.2
2024-02-05T04:10:00+09:00,1.8,�k,4.6,�k,4.9,74.3,0,0,0,0,0,0,1010.7,1025.2
2024-02-05T04:11:00+09:00,1.7,�k,4.6,�k�k��,4.9,74.1,0,0,0,0,0,0,1010.7,1025.2
2024-02-05T04:12:00+09:00,1.8,�k,4.6,�k�k��,4.9,74.2,0,0,0,0,0,0,1010.7,1025.2
2024-02-05T04:13:00+09:00,1.8,�k,4.6,�k�k��,4.9,74,0,0,0,0,0,0,1010.8,1025.3
2024-02-05T04:14:00+09:00,1.8,�k�k��,4.6,�k�k��,4.9,73.6,0,0,0,0,0,0,1010.9,1025.4
2024-02-05T04:15:00+09:00,1.8,�k�k��,4.6,�k�k��,5,73.5,0,0,0,0,0,0,1010.9,1025.4
2024-02-05T04:16:00+09:00,1.8,�k�k��,4.6,�k�k��,5,73.1,0,0,0,0,0,0,1010.8,1025.3
2024-02-05T04:17:00+09:00,1.8,�k�k��,4.3,�k��,5,72.5,0,0,0,0,0,0,1010.8,1025.3
2024-02-05T04:18:00+09:00,1.9,�k�k��,4.3,�k��,5.1,72.4,0,0,0,0,0,0,1010.8,1025.3
2024-02-05T04:19:00+09:00,1.8,�k�k��,4.3,�k��,5.1,72.3,0,0,0,0,0,0,1010.9,1025.4
2024-02-05T04:20:00+09:00,1.8,�k�k��,4.3,�k��,5,72.7,0,0,0,0,0,0,1010.9,1025.4
2024-02-05T04:21:00+09:00,1.9,�k,4.3,�k��,5,73,0,0,0,0,0,0,1011,1025.5
2024-02-05T04:22:00+09:00,1.8,�k�k��,4.3,�k��,5,72.8,0,0,0,0,0,0,1010.9,1025.4
2024-02-05T04:23:00+09:00,1.8,�k�k��,4.3,�k��,5,72.8,0,0,0,0,0,0,1011,1025.5
2024-02-05T04:24:00+09:00,1.7,�k�k��,4.3,�k��,5,72.9,0,0,0,0,0,0,1011,1025.5
2024-02-05T04:25:00+09:00,1.6,�k�k��,4.3,�k��,5,72.8,0,0,0,0,0,0,1010.9,1025.4
2024-02-05T04:26:00+09:00,1.5,�k,4.1,�k��,5,72.8,0,0,0,0,0,0,1010.9,1025.4
2024-02-05T04:27:00+09:00,1.6,�k,4.5,�k�k��,5,73.1,0,0,0,0,0,0,1010.9,1025.4
2024-02-05T04:28:00+09:00,1.6,�k,4.5,�k�k��,5,72.9,0,0,0,0,0,0,1010.9,1025.4
2024-02-05T04:29:00+09:00,1.7,�k,4.7,�k�k��,5,73.1,0,0,0,0,0,0,1010.9,1025.4
2024-02-05T04:30:00+09:00,1.8,�k,4.7,�k�k��,5,73.1,0,0,0,0,0,0,1010.9,1025.4
2024-02-05T04:31:00+09:00,1.8,�k,4.7,�k�k��,5,73.2,0,0,0,0,0,0,1010.9,1025.4
2024-02-05T04:32:00+09:00,1.9,�k,4.7,�k�k��,5,73.1,0,0,0,0,0,0,1010.8,1025.3
2024-02-05T04:33:00+09:00,2,�k,4.7,�k�k��,5,73,0,0,0,0,0,0,1010.8,1025.3
2024-02-05T04:34:00+09:00,2.2,�k,4.7,�k�k��,4.9,73.2,0,0,0,0,0,0,1010.8,1025.3
2024-02-05T04:35:00+09:00,2.3,�k,4.7,�k�k��,4.9,73.4,0,0,0,0,0,0,1010.7,1025.2
2024-02-05T04:36:00+09:00,2.4,�k,4.7,�k�k��,4.9,73.4,0,0,0,0,0,0,1010.8,1025.3
2024-02-05T04:37:00+09:00,2.3,�k,4.7,�k�k��,5,73.4,0,0,0,0,0,0,1010.9,1025.4
2024-02-05T04:38:00+09:00,2.2,�k,4.7,�k�k��,4.9,73.3,0,0,0,0,0,0,1010.9,1025.4
2024-02-05T04:39:00+09:00,2.1,�k,4,�k�k��,4.9,73.4,0,0,0,0,0,0,1010.8,1025.3
2024-02-05T04:40:00+09:00,2,�k,4,�k�k��,4.9,73,0,0,0,0,0,0,1010.8,1025.3
2024-02-05T04:41:00+09:00,2,�k,4,�k�k��,5,72.7,0,0,0,0,0,0,1010.8,1025.3
2024-02-05T04:42:00+09:00,1.9,�k,4,�k�k��,5.1,72.2,0,0,0,0,0,0,1010.9,1025.4
2024-02-05T04:43:00+09:00,1.9,�k,4.3,�k,5.1,71.9,0,0,0,0,0,0,1010.9,1025.4
2024-02-05T04:44:00+09:00,1.8,�k�k��,4.3,�k,5.1,71.3,0,0,0,0,0,0,1010.9,1025.4
2024-02-05T04:45:00+09:00,1.7,�k�k��,4.3,�k,5.1,71.1,0,0,0,0,0,0,1010.9,1025.4
2024-02-05T04:46:00+09:00,1.8,�k�k��,4.3,�k,5.1,71,0,0,0,0,0,0,1010.9,1025.4
2024-02-05T04:47:00+09:00,1.8,�k�k��,4.3,�k,5.2,71.1,0,0,0,0,0,0,1010.9,1025.4
2024-02-05T04:48:00+09:00,1.8,�k�k��,4.3,�k,5.2,70.8,0,0,0,0,0,0,1010.9,1025.4
2024-02-05T04:49:00+09:00,1.9,�k�k��,4.3,�k,5.2,71,0,0,0,0,0,0,1010.9,1025.4
2024-02-05T04:50:00+09:00,1.9,�k�k��,4.3,�k,5.1,71,0,0,0,0,0,0,1010.8,1025.3
2024-02-05T04:51:00+09:00,1.8,�k�k��,4.3,�k,5.2,70.9,0,0,0,0,0,0,1010.9,1025.4
2024-02-05T04:52:00+09:00,1.8,�k�k��,4.3,�k,5.1,71.1,0,0,0,0,0,0,1010.9,1025.4
2024-02-05T04:53:00+09:00,1.7,�k�k��,4.2,�k�k��,5.1,71,0,0,0,0,0,0,1010.9,1025.4
2024-02-05T04:54:00+09:00,1.7,�k�k��,4.2,�k�k��,5.1,71.2,0,0,0,0,0,0,1010.9,1025.4
2024-02-05T04:55:00+09:00,1.7,�k�k��,4.2,�k�k��,5.1,71.3,0,0,0,0,0,0,1010.8,1025.3
2024-02-05T04:56:00+09:00,1.7,�k�k��,4.5,�k��,5.1,71.3,0,0,0,0,0,0,1010.8,1025.3
2024-02-05T04:57:00+09:00,1.7,�k�k��,4.5,�k��,5.1,70.9,0,0,0,0,0,0,1010.8,1025.3
2024-02-05T04:58:00+09:00,1.7,�k�k��,4.5,�k��,5.2,70.7,0,0,0,0,0,0,1010.9,1025.4
2024-02-05T04:59:00+09:00,1.7,�k�k��,4.5,�k��,5.2,70.8,0,0,0,0,0,0,1011,1025.5
2024-02-05T05:00:00+09:00,1.7,�k�k��,4.5,�k��,5.3,70.9,0,0,0,0,0,0,1011,1025.5
2024-02-05T05:01:00+09:00,1.7,�k�k��,4.5,�k��,5.2,70.9,0,0,0,0,0,0,1010.9,1025.4
2024-02-05T05:02:00+09:00,1.7,�k�k��,5,�k�k��,5.2,70.9,0,0,0,0,0,0,1011,1025.5
2024-02-05T05:03:00+09:00,1.8,�k,5,�k�k��,5.2,71,0,0,0,0,0,0,1011,1025.5